Location: Étouvelles
(49.5207°N, 3.5808°E)
Time: 00:54:39
(UTC+00:00)

IRIDIUM 114 - Pass Details

Date: 03 February 2023
Orbit: 776 x 779 km, 86.4° (Epoch: 21 March)

Event Time Altitude Azimuth Distance (km) Brightness Sun altitude
Rises 18:35:22 0° 355° (N) 3,277 7.6 -18.2°
Reaches altitude 10° 18:37:43 10° 356° (N) 2,344 6.8 -18.6°
Maximum altitude 18:42:59 89° 269° (W) 787 4.3 -19.4°
Drops below altitude 10° 18:48:12 10° 178° (S) 2,324 6.8 -20.3°
Sets 18:50:32 0° 179° (S) 3,247 7.6 -20.6°
